Home   Weather   Bergheim   Past weeks

Flag for Germany Past Weather in Bergheim, North Rhine-Westphalia, Germany — Yesterday and Last 2 Weeks

Now
79 °F

Pleasantly warm.


Feels Like: 79 °F
Forecast: 57 / 83 °F
Wind: 7 mph from Southeast

Location: Noervenich

Current Time: May 26, 2017 at 8:52:20 pm

Latest Report: May 26, 2017 at 8:20 pm


Visibility: N/A

Pressure: 30.07 "Hg

Humidity: 37%

Dew Point: 50 °F

Location of BergheimLocation

Past Weather in Bergheim — Graph

°F

Bergheim Temperature Yesterday

Maximum temperature yesterday: 73 °F (at 5:20 pm)
Minimum temperature yesterday: 52 °F (at 5:20 am)
Average temperature yesterday: 62 °F

High & Low Weather Summary for the Past Weeks

 TemperatureHumidityPressure
High82 °F (May 17, 1:20 pm)94% (May 12, 7:20 am)30.42 "Hg (May 12, 7:20 am)
Low43 °F (May 21, 5:20 am)29% (May 15, 4:20 pm)29.42 "Hg (May 11, 5:20 pm)
Average63 °F65%30.07 "Hg
* Reported May 11 5:20 pm — May 26 5:20 pm, Bergheim. Weather by CustomWeather, © 2017

Note: Actual official high and low records may vary slightly from our data, if they occured in-between our weather recording intervals... More about our weather records

Advertising

Bergheim Weather History for the Previous 24 Hours

Scroll right to see more
 ConditionsComfort  
Time TempWeatherWind HumidityBarometerVisibility
5:20 pm
Fri, May 26
79 °FPassing clouds.8 mph37%30.09 "HgN/A
4:20 pm79 °FPassing clouds.10 mph37%30.09 "HgN/A
3:20 pm79 °FPassing clouds.9 mph37%30.12 "HgN/A
2:20 pm77 °FPassing clouds.10 mph39%30.12 "HgN/A
1:20 pm75 °FPassing clouds.10 mph44%30.15 "HgN/A
12:20 pm72 °FPassing clouds.9 mph47%30.18 "HgN/A
11:20 am70 °FMild.9 mph50%30.18 "HgN/A
10:20 am68 °FMild.5 mph56%30.21 "HgN/A
9:20 am64 °FMild.6 mph68%30.21 "HgN/A
8:20 am61 °FCool.5 mph72%30.21 "HgN/A
7:20 am57 °FCool.2 mph82%30.21 "HgN/A
6:20 am52 °FCool.2 mph88%30.21 "HgN/A
5:20 am52 °FPassing clouds.No wind88%30.18 "HgN/A
4:20 am52 °FPassing clouds.2 mph94%30.18 "HgN/A
3:20 am54 °FPassing clouds.No wind88%30.18 "HgN/A
2:20 am54 °FPassing clouds.No wind88%30.18 "HgN/A
1:20 am57 °FPassing clouds.1 mph82%30.21 "HgN/A
12:20 am59 °FPassing clouds.No wind77%30.18 "HgN/A
11:20 pm
Thu, May 25
61 °FPassing clouds.5 mph72%30.21 "HgN/A
10:20 pm63 °FPassing clouds.3 mph68%30.21 "HgN/A
9:20 pm66 °FPartly sunny.6 mph60%30.18 "HgN/A
8:20 pm70 °FPartly sunny.9 mph53%30.18 "HgN/A
Weather by CustomWeather, © 2017

See weather overviewHow to use our weather pages